Orbital Elements at Epoch 2459000.5 (2020-May-31.0) TDB
Reference: JPL 5 (heliocentric ecliptic J2000)
Element | Value | Uncertainty (1-sigma) | Units |
e | .1844532109413487 | 1.2914e-07 | |
a | 2.566033829949257 | 3.4694e-08 | au |
q | 2.09272065063099 | 3.4993e-07 | au |
i | 7.574806196887515 | 1.6956e-05 | deg |
node | 266.4081648731099 | 8.7801e-05 | deg |
peri | 97.98625801899351 | 0.0001121 | deg |
M | 16.84962790660143 | 7.7489e-05 | deg |
tp | 2458930.228405605321 (2020-Mar-21.72840561) | 0.00032214 | TDB |
period | 1501.384726256954 4.11 | 3.0449e-05 8.336e-08 | d yr |
n | .2397786481400424 | 4.8629e-09 | deg/d |
Q | 3.039347009267524 | 4.1093e-08 | au |
|
| | Orbit Determination Parameters
Additional Information
|